Time,TemperatureF,DewpointF,PressureIn,WindDirection,WindDirectionDegrees,WindSpeedMPH,WindSpeedGustMPH,Humidity,HourlyPrecipIn,Conditions,Clouds,dailyrainin,SoftwareType,DateUTC
2013-07-03 00:22:00,78.0,75.0,-100.00,South,185,3.0,-999.0,92,0.00,,,-99.99,,2013-07-03 04:22:00,
2013-07-03 00:34:00,78.0,75.0,-100.00,South,185,3.0,-999.0,92,0.00,,,-99.99,,2013-07-03 04:34:00,
2013-07-03 00:43:00,78.0,75.0,-100.00,South,185,3.0,-999.0,92,0.00,,,-99.99,,2013-07-03 04:43:00,
2013-07-03 00:45:00,78.0,75.0,-100.00,South,178,6.0,-999.0,93,0.00,,,-99.99,,2013-07-03 04:45:00,
2013-07-03 01:39:00,78.0,75.0,-100.00,South,178,6.0,-999.0,93,0.00,,,-99.99,,2013-07-03 05:39:00,
2013-07-03 01:45:00,77.0,75.0,-100.00,SSW,197,3.0,-999.0,94,0.00,,,-99.99,,2013-07-03 05:45:00,
2013-07-03 02:26:00,77.0,75.0,-100.00,SSW,197,3.0,-999.0,94,0.00,,,-99.99,,2013-07-03 06:26:00,
2013-07-03 02:39:00,77.0,75.0,-100.00,SSW,197,3.0,-999.0,94,0.00,,,-99.99,,2013-07-03 06:39:00,
2013-07-03 02:45:00,77.0,76.0,-100.00,SSE,162,2.0,-999.0,95,0.00,,,-99.99,,2013-07-03 06:45:00,
2013-07-03 03:28:00,77.0,76.0,-100.00,SSE,162,2.0,-999.0,95,0.00,,,-99.99,,2013-07-03 07:28:00,
2013-07-03 03:39:00,77.0,76.0,-100.00,SSE,162,2.0,-999.0,95,0.00,,,-99.99,,2013-07-03 07:39:00,
2013-07-03 03:45:00,78.0,76.0,-100.00,SSE,150,5.0,-999.0,95,0.00,,,-99.99,,2013-07-03 07:45:00,
2013-07-03 04:38:00,78.0,76.0,-100.00,SSE,150,5.0,-999.0,95,0.00,,,-99.99,,2013-07-03 08:38:00,
2013-07-03 04:45:00,77.0,75.0,-100.00,SSE,168,5.0,-999.0,93,0.00,,,-99.99,,2013-07-03 08:45:00,
2013-07-03 05:39:00,77.0,75.0,-100.00,SSE,168,5.0,-999.0,93,0.00,,,-99.99,,2013-07-03 09:39:00,
2013-07-03 05:45:00,78.0,75.0,-100.00,SSE,168,5.0,-999.0,92,0.00,,,-99.99,,2013-07-03 09:45:00,
2013-07-03 06:28:00,78.0,75.0,-100.00,SSE,168,5.0,-999.0,92,0.00,,,-99.99,,2013-07-03 10:28:00,
2013-07-03 06:37:00,78.0,75.0,-100.00,SSE,168,5.0,-999.0,92,0.00,,,-99.99,,2013-07-03 10:37:00,
2013-07-03 07:45:00,79.0,77.0,-100.00,SSE,161,8.0,-999.0,92,0.00,,,-99.99,,2013-07-03 11:45:00,
2013-07-03 08:26:00,79.0,77.0,-100.00,SSE,161,8.0,-999.0,92,0.00,,,-99.99,,2013-07-03 12:26:00,
2013-07-03 08:45:00,80.0,75.0,-100.00,South,170,10.0,-999.0,84,0.00,,,-99.99,,2013-07-03 12:45:00,
2013-07-03 09:45:00,82.0,76.0,-100.00,SSE,164,12.0,-999.0,82,0.00,,,-99.99,,2013-07-03 13:45:00,
2013-07-03 10:45:00,82.0,77.0,-100.00,SSE,155,12.0,-999.0,84,0.00,,,-99.99,,2013-07-03 14:45:00,
2013-07-03 11:27:00,82.0,77.0,-100.00,SSE,155,12.0,-999.0,84,0.00,,,-99.99,,2013-07-03 15:27:00,
2013-07-03 11:38:00,82.0,77.0,-100.00,SSE,155,12.0,-999.0,84,0.00,,,-99.99,,2013-07-03 15:38:00,
2013-07-03 11:45:00,83.0,78.0,-100.00,SSE,159,14.0,-999.0,85,0.00,,,-99.99,,2013-07-03 15:45:00,
2013-07-03 12:40:00,83.0,78.0,-100.00,SSE,159,14.0,-999.0,85,0.00,,,-99.99,,2013-07-03 16:40:00,
2013-07-03 12:45:00,83.0,78.0,-100.00,SSE,152,12.0,-999.0,82,0.00,,,-99.99,,2013-07-03 16:45:00,
2013-07-03 13:26:00,83.0,78.0,-100.00,SSE,152,12.0,-999.0,82,0.00,,,-99.99,,2013-07-03 17:26:00,
2013-07-03 13:41:00,83.0,78.0,-100.00,SSE,152,12.0,-999.0,82,0.00,,,-99.99,,2013-07-03 17:41:00,
2013-07-03 13:45:00,83.0,78.0,-100.00,SSE,159,16.0,-999.0,85,0.00,,,-99.99,,2013-07-03 17:45:00,
2013-07-03 14:26:00,83.0,78.0,-100.00,SSE,159,16.0,-999.0,85,0.00,,,-99.99,,2013-07-03 18:26:00,
2013-07-03 14:45:00,83.0,78.0,-100.00,SSE,152,15.0,-999.0,84,0.00,,,-99.99,,2013-07-03 18:45:00,
2013-07-03 15:30:00,83.0,78.0,-100.00,SSE,152,15.0,-999.0,84,0.00,,,-99.99,,2013-07-03 19:30:00,
2013-07-03 15:38:00,83.0,78.0,-100.00,SSE,152,15.0,-999.0,84,0.00,,,-99.99,,2013-07-03 19:38:00,
2013-07-03 15:45:00,83.0,77.0,-100.00,SSE,154,16.0,-999.0,84,0.00,,,-99.99,,2013-07-03 19:45:00,
2013-07-03 16:37:00,83.0,77.0,-100.00,SSE,154,16.0,-999.0,84,0.00,,,-99.99,,2013-07-03 20:37:00,
2013-07-03 16:45:00,83.0,77.0,-100.00,SSE,155,16.0,-999.0,83,0.00,,,-99.99,,2013-07-03 20:45:00,
2013-07-03 17:45:00,82.0,77.0,-100.00,SSE,157,15.0,-999.0,86,0.00,,,-99.99,,2013-07-03 21:45:00,
2013-07-03 18:38:00,82.0,77.0,-100.00,SSE,157,15.0,-999.0,86,0.00,,,-99.99,,2013-07-03 22:38:00,
2013-07-03 18:45:00,81.0,75.0,-100.00,SSE,152,17.0,-999.0,82,0.00,,,-99.99,,2013-07-03 22:45:00,
2013-07-03 19:26:00,81.0,75.0,-100.00,SSE,152,17.0,-999.0,82,0.00,,,-99.99,,2013-07-03 23:26:00,
2013-07-03 19:40:00,81.0,75.0,-100.00,SSE,152,17.0,-999.0,82,0.00,,,-99.99,,2013-07-03 23:40:00,
2013-07-03 19:45:00,80.0,76.0,-100.00,SSE,160,11.0,-999.0,86,0.00,,,-99.99,,2013-07-03 23:45:00,
2013-07-03 20:37:00,80.0,76.0,-100.00,SSE,160,11.0,-999.0,86,0.00,,,-99.99,,2013-07-04 00:37:00,
2013-07-03 20:45:00,80.0,77.0,-100.00,SSE,152,9.0,-999.0,89,0.00,,,-99.99,,2013-07-04 00:45:00,
2013-07-03 21:25:00,80.0,77.0,-100.00,SSE,152,9.0,-999.0,89,0.00,,,-99.99,,2013-07-04 01:25:00,
2013-07-03 21:39:00,80.0,77.0,-100.00,SSE,152,9.0,-999.0,89,0.00,,,-99.99,,2013-07-04 01:39:00,
2013-07-03 21:45:00,80.0,76.0,-100.00,SSE,152,9.0,-999.0,88,0.00,,,-99.99,,2013-07-04 01:45:00,
2013-07-03 22:24:00,80.0,76.0,-100.00,SSE,152,9.0,-999.0,88,0.00,,,-99.99,,2013-07-04 02:24:00,
2013-07-03 22:40:00,80.0,76.0,-100.00,SSE,152,9.0,-999.0,88,0.00,,,-99.99,,2013-07-04 02:40:00,
2013-07-03 22:45:00,80.0,77.0,-100.00,SSE,157,7.0,-999.0,90,0.00,,,-99.99,,2013-07-04 02:45:00,
2013-07-03 23:28:00,80.0,77.0,-100.00,SSE,157,7.0,-999.0,90,0.00,,,-99.99,,2013-07-04 03:28:00,
2013-07-03 23:36:00,80.0,77.0,-100.00,SSE,157,7.0,-999.0,90,0.00,,,-99.99,,2013-07-04 03:36:00,